Weather History for PAJN - November, 2012

Change the Weather History Date:

Tuesday, November 27, 2012

  Actual Average Record
Temperature  
Mean Temperature 20 °F 32 °F  
Max Temperature 24 °F 36 °F 53 °F (2002)
Min Temperature 15 °F 27 °F -5 °F (2006)
Degree Days  
Heating Degree Days 45 34  
Month to date heating degree days 922 845  
Since 1 July heating degree days 2812 2530  
Moisture  
Dew Point 17 °F    
Average Humidity 88    
Maximum Humidity 96    
Minimum Humidity 80    
Precipitation  
Precipitation 0.00 in 0.20 in 0.96 in (1959)
Month to date precipitation 4.53 5.39  
Year to date precipitation 58.44 55.83  
Snow  
Snow 0.00 in 0.60 in 4.70 in (1971)
Month to date snowfall 13.3 11.4  
Since 1 July snowfall 14.7 12.2  
Since 1 September snowfall 14.7 12.2  
Snow Depth 6.00 in    
Sea Level Pressure  
Sea Level Pressure 30.06 in    
Wind  
Wind Speed 0 mph (SE)    
Max Wind Speed 5 mph    
Max Gust Speed 16 mph    
Visibility 8 miles    
Events Fog    
T = Trace of Precipitation, MM = Missing Value Source: NWS Daily Summary

Daily Weather History Graph

Daily Weather History Graph

Search for Another Location

Airport or City:

Trip Planner

Search our weather history database for the weather conditions in past years. The results will help you decide how hot, cold, wet, or windy it might be!

Date:

Astronomy

Nov. 27, 2012 Rise Set
Actual Time 8:14 AM AKST 3:17 PM AKST
Civil Twilight 7:24 AM AKST 4:06 PM AKST
Nautical Twilight 6:33 AM AKST 4:58 PM AKST
Astronomical Twilight 5:45 AM AKST 5:45 PM AKST
Moon 2:57 PM AKST (11/27) 7:21 AM AKST (11/27)
Length of Visible Light 8h 41m
Length of Day
7h 03m
Full, 100% of the Moon is Illuminated
Nov 27
Full
Nov 28
Full
Dec 6
Last Quarter
Dec 12
New
Dec 19
First Quarter

Hourly Weather History & Observations

Time (AKST) Temp. Windchill Dew Point Humidity Pressure Visibility Wind Dir Wind Speed Gust Speed Precip Events Conditions
12:11 AM 19.4 °F 14.3 °F 17.6 °F 93% 30.19 in 0.5 mi SE 3.5 mph - N/A Fog Light Freezing Fog
12:32 AM 19.4 °F - 17.6 °F 93% 30.18 in 10.0 mi Calm Calm - N/A Fog Patches of Fog
12:53 AM 19.9 °F - 18.0 °F 92% 30.18 in 10.0 mi Calm Calm - N/A Fog Patches of Fog
1:05 AM 19.4 °F - 17.6 °F 93% 30.18 in 0.5 mi Calm Calm - N/A Fog Light Freezing Fog
1:15 AM 17.6 °F - 17.6 °F 100% 30.18 in 0.2 mi Calm Calm - N/A Fog Light Freezing Fog
1:39 AM 17.6 °F - 15.8 °F 93% 30.17 in 10.0 mi Calm Calm - N/A Fog Patches of Fog
1:53 AM 18.0 °F - 16.0 °F 92% 30.16 in 10.0 mi Calm Calm - N/A Fog Patches of Fog
2:09 AM 17.6 °F - 15.8 °F 93% 30.15 in 1.0 mi Calm Calm - N/A   Mostly Cloudy
2:23 AM 17.6 °F - 15.8 °F 93% 30.15 in 0.5 mi Calm Calm - N/A Fog Light Freezing Fog
2:35 AM 17.6 °F - 15.8 °F 93% 30.15 in 3.0 mi Calm Calm - N/A   Mostly Cloudy
2:46 AM 17.6 °F - 15.8 °F 93% 30.15 in 0.5 mi Calm Calm - N/A Fog Light Freezing Fog
2:53 AM 17.1 °F - 15.1 °F 92% 30.15 in 0.5 mi Calm Calm - N/A Fog Light Freezing Fog
3:12 AM 17.6 °F - 15.8 °F 93% 30.13 in 10.0 mi Calm Calm - N/A Fog Patches of Fog
3:53 AM 17.1 °F - 15.1 °F 92% 30.11 in 10.0 mi Calm Calm - N/A Fog Patches of Fog
4:15 AM 15.8 °F - 15.8 °F 100% 30.10 in 10.0 mi Calm Calm - N/A Fog Patches of Fog
4:38 AM 17.6 °F - 15.8 °F 93% 30.10 in 10.0 mi Calm Calm - N/A Fog Patches of Fog
4:51 AM 17.6 °F - 14.0 °F 86% 30.09 in 1.0 mi Calm Calm - N/A   Mostly Cloudy
4:53 AM 17.1 °F - 14.0 °F 88% 30.09 in 0.5 mi Calm Calm - N/A Fog Light Freezing Fog
5:21 AM 15.8 °F - 12.2 °F 86% 30.09 in 5.0 mi Calm Calm - N/A   Mostly Cloudy
5:39 AM 17.6 °F - 15.8 °F 93% 30.08 in 10.0 mi Calm Calm - N/A Fog Patches of Fog
5:53 AM 16.0 °F - 14.0 °F 92% 30.08 in 10.0 mi Calm Calm - N/A Fog Patches of Fog
6:32 AM 15.8 °F - 12.2 °F 86% 30.07 in 10.0 mi Calm Calm - N/A   Overcast
6:53 AM 17.1 °F - 14.0 °F 88% 30.07 in 10.0 mi Calm Calm - N/A Fog Patches of Fog
7:05 AM 17.6 °F - 15.8 °F 93% 30.07 in 10.0 mi Calm Calm - N/A Fog Patches of Fog
7:53 AM 17.1 °F - 12.9 °F 84% 30.05 in 10.0 mi Calm Calm - N/A Fog Patches of Fog
8:53 AM 16.0 °F - 14.0 °F 92% 30.05 in 10.0 mi Calm Calm - N/A Fog Patches of Fog
9:53 AM 17.1 °F - 14.0 °F 88% 30.04 in 10.0 mi Calm Calm - N/A   Overcast
10:53 AM 19.0 °F - 16.0 °F 88% 30.04 in 10.0 mi Calm Calm - N/A   Overcast
11:53 AM 21.0 °F - 19.0 °F 92% 30.01 in 10.0 mi Calm Calm - N/A   Overcast
12:53 PM 23.0 °F - 21.0 °F 92% 29.99 in 10.0 mi Calm Calm - N/A   Overcast
1:53 PM 24.1 °F - 21.9 °F 91% 29.97 in 10.0 mi Calm Calm - N/A   Overcast
2:53 PM 23.0 °F - 19.9 °F 88% 29.95 in 10.0 mi Calm Calm - N/A   Overcast
3:53 PM 23.0 °F - 21.0 °F 92% 29.95 in 10.0 mi Calm Calm - N/A   Overcast
4:53 PM 21.9 °F - 19.9 °F 92% 29.94 in 10.0 mi Calm Calm - N/A   Overcast
5:53 PM 21.9 °F - 19.9 °F 92% 29.93 in 10.0 mi Calm Calm - N/A   Overcast
6:53 PM 21.9 °F - 19.9 °F 92% 29.92 in 10.0 mi Calm Calm - N/A   Overcast
7:53 PM 21.0 °F - 19.0 °F 92% 29.92 in 10.0 mi Calm Calm - N/A   Overcast
8:53 PM 21.0 °F - 19.0 °F 92% 29.93 in 10.0 mi Calm Calm - N/A   Overcast
9:53 PM 21.0 °F - 19.0 °F 92% 29.92 in 10.0 mi Calm Calm - N/A   Overcast
10:53 PM 21.0 °F - 19.0 °F 92% 29.94 in 9.0 mi Calm Calm - N/A   Overcast
11:53 PM 19.9 °F - 18.0 °F 92% 29.93 in 10.0 mi Calm Calm - N/A   Overcast